Tracking 19827 objects as of 21-Aug-2019
HD Live streaming from Space Station
objects crossing your sky now

FENGYUN 1C DEB

Track FENGYUN 1C DEB now!
10-day predictions


NORAD ID: 30404
Int'l Code: 1999-025ADT
Perigee: 857.4 km
Apogee: 1,444.7 km
Inclination: 99.7 °
Period: 108.2 minutes
Semi major axis: 7522 km
RCS: 0.0064 m2 (small)
Launch date: May 10, 1999
Source: People's Republic of China (PRC)
Launch site: Taiyaun Space Center, China (TSC)

Note: This is SATELLITE DEBRIS
aabbcc
Your satellite tracking list
Your tracking list is empty




NASA's NSSDC Master Catalog

Two Line Element Set (TLE):
1 30404U 99025ADT 19232.93555514  .00000235  00000-0  38758-3 0  9994
2 30404  99.6865  38.6420 0390400 281.8674 240.1747 13.30749224610615
Source of the keplerian elements: AFSPC